User: anonymous   Login
Location: Caltech
(34.1382°N, 118.1253°W)
Time: 12:55:31
(UTC-07:00)
Language:

Meteor 1-11 Rocket - Orbit

View from above orbital plane
View from above orbital plane
View from above satellite
View from above satellite

Ground track
Ground track

The orbit data is extracted from the following two-line orbital elements,

1 05918U 72022B   14295.14396156  .00000126  00000-0  68322-4 0  2821
2 05918 081.2381 183.2529 0059110 168.4789 354.5690 14.05725823181848
Epoch (UTC): 22 October 2014 03:27:18
Eccentricity: 0.0059110
inclination: 81.2381°
perigee height: 831 km
apogee height: 917 km
right ascension of ascending node: 183.2529°
argument of perigee: 168.4789°
revolutions per day: 14.05725823
mean anomaly at epoch: 354.5690°
orbit number at epoch: 18184

The dashed part of the orbit path shows where the satellite is in the earth's shadow,  

DLR